Tracking 25723 objects as of 27-Jun-2022
HD Live streaming from Space Station
objects crossing your sky now

DMSP 5D-2 F13 DEB

Track DMSP 5D-2 F13 DEB now!
10-day predictions


NORAD ID: 42271
Int'l Code: 1995-015GM
Perigee: 811.8 km
Apogee: 813.8 km
Inclination: 98.7 °
Period: 101.0 minutes
Semi major axis: 7183 km
RCS: Unknown
Launch date: March 24, 1995
Source: United States (US)
Launch site: AIR FORCE WESTERN TEST RANGE (AFWTR)

Note: This is SATELLITE DEBRIS
aabbcc
Your satellite tracking list
Your tracking list is empty




NASA's NSSDC Master Catalog

Two Line Element Set (TLE):
1 42271U 95015GM  22177.32029345  .00003898  00000-0  16562-2 0  9993
2 42271  98.7442 198.0165 0001387 323.7972  36.3113 14.25849064362218
Source of the keplerian elements: AFSPC